Temp
-6 -6 -6 -6 -6 -6 -6 -5 -5 -5 -6 -6 -6 -5 -5 -5 -5 -5 -6 -6 -6 -6 -5 -6 -6 -6 -6 -7 -6 -7 -7 -7 -7 -7 -7 -7 -8 -7 -7 -7 -7 -8 -8
-5 -6 -6 -6 -6 -5 -5 -5 -5 -5 -5 -5 -5 -5 -5 -5 -5 -5 -5 -5 -6 -6 -6 -6 -6 -6 -7 -7 -7 -7 -7 -7 -7 -7 -7 -7 -7 -7 -7 -7 -7 -8 -8
-5 -6 -7 -7 -6 -5 -5 -5 -5 -5 -5 -6 -5 -5 -5 -5 -5 -5 -5 -5 -6 -6 -6 -6 -6 -6 -6 -6 -6 -7 -7 -7 -7 -7 -7 -7 -8 -8 -8 -8 -7 -8 -8
-6 -6 -7 -6 -5 -5 -5 -5 -5 -5 -5 -6 -5 -5 -5 -5 -5 -5 -5 -5 -6 -6 -6 -6 -7 -7 -6 -6 -7 -7 -7 -7 -7 -8 -7 -6 -7 -8 -8 -8 -8 -8 -8
-6 -6 -6 -6 -5 -5 -5 -5 -5 -5 -5 -5 -5 -5 -5 -5 -5 -5 -5 -5 -5 -5 -6 -6 -6 -6 -6 -6 -7 -7 -7 -8 -8 -8 -7 -8 -8 -8 -8 -8 -8 -8 -8
-5 -5 -6 -5 -5 -5 -5 -5 -5 -5 -5 -5 -4 -5 -5 -5 -5 -5 -5 -5 -5 -5 -5 -6 -6 -7 -7 -7 -7 -7 -7 -7 -7 -7 -8 -7 -8 -8 -8 -8 -8 -8 -8
-5 -5 -5 -5 -5 -5 -5 -5 -5 -4 -4 -5 -5 -5 -5 -5 -5 -5 -5 -5 -5 -5 -6 -6 -6 -7 -7 -7 -7 -7 -7 -7 -7 -7 -8 -8 -8 -8 -8 -8 -8 -8 -9
-5 -5 -5 -5 -5 -5 -5 -4 -4 -4 -5 -5 -5 -5 -5 -5 -5 -5 -5 -5 -5 -6 -6 -6 -6 -6 -7 -7 -7 -7 -7 -7 -8 -7 -7 -8 -8 -8 -8 -8 -8 -9 -9
-5 -5 -5 -5 -5 -5 -4 -4 -4 -4 -5 -5 -5 -5 -5 -5 -5 -5 -5 -5 -5 -6 -6 -6 -6 -6 -7 -7 -7 -7 -7 -7 -7 -7 -8 -8 -8 -8 -8 -8 -9 -9 -9
-4 -4 -4 -4 -5 -4 -4 -4 -4 -4 -5 -4 -4 -5 -5 -5 -5 -5 -5 -5 -6 -6 -6 -6 -6 -7 -7 -7 -7 -7 -7 -7 -8 -8 -8 -8 -8 -8 -9 -9 -9 -9 -9
-5 -4 -4 -4 -4 -4 -4 -4 -4 -4 -4 -5 -5 -5 -5 -5 -5 -5 -5 -5 -5 -6 -6 -6 -7 -7 -7 -7 -7 -7 -7 -8 -8 -8 -9 -9 -9 -9 -9 -9 -10 -9 -9
-5 -5 -4 -4 -4 -4 -4 -4 -4 -4 -4 -5 -5 -5 -5 -5 -5 -6 -6 -5 -5 -6 -6 -6 -7 -7 -8 -6 -8 -8 -8 -9 -9 -9 -9 -9 -9 -9 -10 -10 -10 -9 -9
-4 -4 -4 -3 -3 -3 -4 -4 -4 -4 -4 -5 -5 -4 -5 -4 -5 -6 -6 -4 -8 -5 -6 -6 -7 -7 -8 -8 -8 -9 -8 -8 -9 -9 -9 -9 -10 -10 -10 -10 -10 -10 -10
-4 -4 -3 -3 -3 -4 -4 -4 -4 -4 -5 -5 -5 -4 -4 -5 -5 -4 -4 -4 -5 -5 -6 -7 -7 -8 -8 -8 -8 -8 -8 -8 -9 -9 -10 -10 -10 -10 -10 -10 -10 -10 -10
-3 -3 -3 -3 -3 -4 -4 -4 -4 -4 -4 -5 -4 -5 -4 -6 -6 -5 -5 -5 -5 -6 -6 -7 -8 -8 -8 -8 -9 -9 -9 -9 -9 -9 -10 -10 -10 -10 -10 -10 -10 -10 -11
-3 -4 -3 -3 -3 -4 -4 -4 -4 -4 -4 -4 -4 -4 -4 -4 -5 -5 -6 -6 -6 -6 -7 -8 -8 -7 -8 -8 -8 -9 -9 -9 -8 -9 -10 -10 -11 -11 -11 -10 -10 -11 -11
-4 -4 -4 -4 -4 -4 -4 -4 -4 -4 -4 -4 -4 -4 -4 -4 -5 -5 -6 -6 -6 -7 -7 -7 -7 -8 -8 -8 -8 -9 -8 -8 -9 -9 -10 -10 -11 -11 -11 -11 -11 -11 -11
-4 -4 -4 -4 -4 -4 -4 -4 -4 -4 -4 -3 -4 -4 -4 -4 -5 -5 -6 -7 -6 -6 -6 -7 -7 -7 -8 -8 -8 -8 -9 -7 -9 -9 -10 -10 -10 -10 -11 -11 -11 -11 -11
-4 -4 -4 -4 -4 -4 -4 -4 -4 -4 -4 -4 -4 -4 -4 -4 -5 -5 -5 -6 -6 -6 -6 -7 -7 -7 -7 -7 -7 -8 -8 -8 -9 -9 -9 -10 -10 -9 -10 -11 -11 -11 -11
-4 -4 -4 -4 -4 -4 -4 -4 -4 -3 -3 -4 -4 -4 -4 -5 -4 -5 -7 -5 -6 -7 -7 -7 -7 -7 -7 -7 -7 -8 -9 -9 -9 -9 -9 -9 -9 -9 -9 -10 -10 -11 -11
-4 -3 -4 -4 -4 -4 -4 -4 -3 -3 -3 -3 -4 -4 -4 -4 -4 -4 -4 -5 -6 -6 -6 -7 -7 -7 -7 -7 -8 -8 -8 -8 -8 -8 -9 -10 -10 -10 -10 -10 -10 -11 -12
-4 -4 -3 -3 -4 -4 -4 -3 -3 -3 -3 -3 -4 -4 -4 -4 -4 -4 -4 -5 -5 -5 -6 -7 -7 -7 -7 -8 -8 -8 -8 -8 -9 -10 -10 -9 -10 -10 -10 -10 -11 -11 -12
-3 -3 -3 -4 -4 -3 -3 -3 -3 -3 -3 -3 -3 -3 -4 -4 -4 -4 -5 -5 -5 -5 -6 -7 -7 -7 -7 -7 -8 -8 -8 -9 -11 -11 -11 -10 -10 -10 -10 -10 -11 -11 -12
-3 -3 -3 -3 -4 -4 -3 -3 -3 -3 -3 -3 -3 -3 -3 -4 -4 -5 -5 -5 -5 -6 -6 -6 -7 -6 -6 -7 -7 -7 -8 -9 -10 -11 -10 -9 -9 -10 -10 -10 -11 -11 -12
-2 -3 -3 -2 -2 -3 -3 -3 -3 -3 -3 -3 -3 -3 -3 -4 -4 -4 -5 -5 -5 -5 -6 -6 -6 -6 -6 -6 -7 -7 -7 -8 -9 -8 -9 -9 -7 -9 -10 -10 -10 -11 -11
-3 -2 -2 -2 -2 -2 -2 -3 -3 -3 -3 -3 -3 -3 -3 -3 -4 -4 -4 -5 -5 -5 -5 -5 -6 -6 -6 -6 -6 -7 -7 -7 -8 -8 -9 -9 -9 -9 -10 -10 -10 -10 -11
Height
5876 5878 5881 5883 5884 5885 5887 5888 5890 5889 5891 5891 5891 5892 5892 5891 5891 5891 5890 5890 5890 5889 5888 5887 5885 5885 5883 5882 5880 5881 5885 5886 5887 5888 5888 5889 5889 5890 5891 5890 5887 5889 5890
5876 5879 5882 5885 5887 5889 5892 5892 5893 5892 5893 5894 5894 5895 5893 5893 5893 5893 5892 5891 5891 5891 5889 5888 5888 5887 5886 5886 5885 5885 5888 5889 5887 5886 5887 5887 5888 5891 5891 5889 5888 5890 5890
5880 5881 5884 5887 5889 5893 5895 5895 5896 5896 5895 5895 5895 5896 5896 5895 5895 5895 5894 5894 5894 5893 5892 5891 5891 5891 5889 5888 5888 5890 5892 5891 5887 5890 5889 5891 5891 5889 5892 5892 5890 5891 5890
5885 5886 5887 5889 5892 5895 5897 5897 5897 5898 5897 5898 5898 5899 5899 5898 5898 5898 5898 5897 5897 5896 5896 5895 5894 5893 5891 5891 5892 5894 5895 5892 5891 5893 5891 5884 5890 5892 5893 5894 5893 5892 5893
5887 5889 5891 5894 5896 5898 5899 5899 5900 5901 5900 5900 5902 5902 5902 5901 5901 5901 5900 5900 5899 5898 5897 5897 5896 5896 5895 5895 5895 5896 5898 5896 5893 5896 5896 5897 5897 5895 5897 5898 5897 5896 5896
5893 5893 5895 5896 5898 5900 5900 5902 5903 5903 5903 5904 5905 5905 5905 5904 5903 5902 5902 5901 5901 5901 5900 5899 5899 5899 5899 5900 5900 5900 5901 5901 5897 5895 5895 5896 5895 5898 5900 5899 5898 5898 5897
5897 5898 5898 5899 5901 5902 5904 5905 5905 5905 5906 5908 5908 5907 5906 5906 5906 5905 5904 5903 5903 5903 5902 5902 5902 5902 5902 5902 5902 5901 5901 5900 5899 5898 5899 5900 5900 5901 5901 5900 5899 5900 5900
5898 5900 5901 5902 5904 5906 5907 5907 5907 5908 5910 5910 5910 5910 5910 5909 5908 5907 5906 5905 5905 5904 5904 5905 5905 5905 5905 5904 5903 5903 5903 5903 5904 5902 5901 5902 5902 5900 5900 5898 5898 5897 5897
5901 5902 5904 5905 5907 5908 5909 5910 5911 5912 5912 5913 5913 5913 5912 5911 5910 5910 5909 5908 5907 5906 5906 5906 5907 5907 5905 5904 5903 5904 5905 5904 5904 5904 5903 5901 5902 5901 5899 5898 5897 5896 5896
5903 5904 5906 5908 5909 5911 5912 5913 5915 5915 5915 5916 5916 5915 5915 5914 5914 5913 5912 5911 5910 5908 5908 5909 5909 5908 5907 5906 5904 5906 5907 5906 5904 5906 5903 5900 5900 5900 5899 5898 5896 5895 5894
5905 5907 5908 5911 5912 5914 5914 5916 5917 5918 5918 5918 5918 5918 5918 5917 5916 5916 5914 5914 5912 5911 5911 5911 5911 5911 5910 5909 5910 5912 5909 5907 5904 5906 5902 5900 5900 5900 5898 5896 5895 5894 5893
5908 5909 5911 5913 5915 5917 5919 5920 5921 5921 5921 5921 5921 5921 5920 5921 5918 5911 5908 5915 5914 5913 5913 5913 5915 5913 5912 5909 5911 5911 5910 5907 5904 5904 5902 5902 5901 5898 5897 5895 5894 5893 5891
5910 5912 5914 5917 5919 5920 5922 5923 5924 5925 5925 5925 5926 5925 5923 5922 5917 5912 5909 5912 5893 5910 5916 5906 5904 5916 5913 5911 5911 5911 5909 5908 5902 5905 5904 5902 5899 5898 5894 5891 5890 5888 5886
5916 5917 5918 5920 5922 5924 5926 5925 5927 5927 5928 5929 5928 5928 5926 5920 5915 5919 5920 5918 5905 5917 5917 5919 5919 5920 5917 5913 5909 5910 5905 5903 5908 5905 5903 5902 5900 5896 5892 5888 5886 5884 5881
5920 5922 5923 5925 5926 5927 5927 5927 5928 5927 5928 5929 5931 5929 5928 5920 5915 5919 5922 5897 5922 5920 5919 5919 5919 5919 5917 5914 5913 5910 5907 5904 5905 5905 5903 5898 5895 5891 5885 5884 5881 5878 5875
5925 5926 5927 5929 5930 5930 5930 5932 5934 5934 5932 5930 5931 5932 5931 5928 5926 5926 5925 5923 5922 5921 5921 5921 5921 5919 5917 5916 5912 5910 5908 5903 5901 5902 5899 5895 5891 5888 5885 5881 5877 5872 5868
5928 5930 5931 5932 5933 5933 5933 5935 5936 5937 5934 5931 5932 5933 5932 5931 5930 5928 5927 5924 5925 5925 5925 5924 5922 5921 5919 5915 5912 5909 5906 5904 5899 5898 5895 5890 5884 5879 5877 5875 5874 5867 5862
5930 5932 5933 5934 5935 5935 5934 5937 5936 5936 5935 5933 5933 5934 5933 5932 5930 5929 5928 5927 5928 5928 5927 5925 5924 5921 5918 5915 5911 5908 5903 5898 5896 5892 5889 5884 5878 5863 5875 5868 5864 5858 5854
5932 5934 5935 5936 5937 5938 5937 5935 5935 5935 5933 5935 5936 5936 5935 5933 5930 5930 5929 5929 5927 5927 5927 5926 5924 5921 5918 5915 5912 5909 5905 5901 5893 5886 5884 5875 5871 5863 5859 5853 5851 5847 5842
5933 5935 5936 5937 5938 5939 5940 5939 5939 5937 5938 5937 5938 5938 5936 5932 5932 5928 5911 5929 5927 5925 5925 5925 5923 5920 5917 5913 5910 5907 5904 5898 5893 5889 5881 5873 5865 5858 5851 5849 5844 5838 5831
5934 5936 5937 5938 5939 5940 5941 5940 5940 5939 5939 5938 5938 5938 5936 5933 5931 5930 5932 5932 5931 5924 5923 5924 5922 5920 5915 5912 5908 5904 5901 5899 5892 5887 5881 5874 5866 5859 5846 5842 5837 5829 5823
5934 5935 5936 5937 5938 5939 5939 5939 5939 5940 5939 5938 5937 5937 5936 5932 5931 5931 5932 5932 5930 5925 5923 5922 5921 5918 5914 5909 5905 5901 5893 5886 5879 5877 5872 5866 5863 5857 5849 5840 5833 5824 5816
5933 5935 5936 5936 5936 5937 5938 5938 5938 5938 5938 5938 5936 5936 5935 5932 5930 5929 5928 5928 5927 5925 5923 5923 5919 5916 5913 5910 5905 5899 5894 5888 5878 5875 5872 5867 5862 5854 5843 5839 5829 5816 5807
5932 5933 5934 5936 5936 5936 5936 5937 5937 5938 5937 5937 5935 5935 5933 5933 5930 5927 5925 5924 5923 5923 5924 5922 5919 5915 5910 5906 5902 5897 5892 5886 5878 5868 5862 5860 5858 5852 5840 5830 5821 5810 5799
5931 5932 5932 5933 5934 5935 5935 5936 5936 5936 5936 5937 5935 5934 5933 5932 5931 5929 5928 5927 5925 5924 5922 5920 5917 5914 5909 5904 5899 5893 5886 5882 5875 5866 5859 5852 5847 5846 5833 5825 5814 5804 5795
5930 5930 5930 5930 5932 5933 5933 5934 5934 5934 5934 5934 5934 5934 5932 5931 5930 5928 5927 5926 5924 5923 5921 5918 5915 5911 5908 5902 5896 5891 5886 5880 5871 5864 5856 5851 5843 5840 5831 5822 5812 5801 5792
Wind_Speed
11 15 5 9 17 20 21 19 18 19 17 17 15 13 15 16 15 13 15 15 15 14 13 15 15 13 13 16 16 10 13 13 12 11 10 6 5 9 9 9 0 1 2
14 12 10 19 21 19 17 19 17 19 17 15 15 13 14 15 15 14 15 15 14 15 15 18 17 17 15 15 21 15 13 13 14 14 17 10 9 10 14 19 10 8 1
26 20 17 30 28 21 16 18 17 17 16 15 15 15 15 16 15 14 15 16 16 16 15 16 17 18 18 16 14 18 16 14 12 11 12 13 14 14 12 14 14 12 13
25 31 34 32 28 20 19 20 19 17 17 17 18 17 16 16 15 16 16 17 17 17 16 14 14 15 17 15 13 13 14 12 10 11 6 7 11 12 12 12 11 10 9
23 24 24 23 23 22 21 21 19 19 20 20 19 17 18 18 17 17 16 17 17 16 15 15 14 14 14 15 15 15 16 15 13 15 15 16 12 15 12 12 12 12 10
22 23 23 23 22 21 21 20 21 21 21 19 18 18 18 17 16 16 14 14 14 14 14 14 13 14 15 15 15 15 14 14 13 14 15 14 16 13 12 12 11 10 11
22 22 22 22 22 21 20 20 21 21 19 19 19 18 17 16 16 15 15 14 13 12 12 12 13 13 14 13 13 13 11 10 10 13 12 14 14 13 13 13 11 11 10
20 19 19 19 21 20 21 21 21 20 18 19 18 17 16 16 16 17 15 14 15 15 14 13 13 15 14 13 13 11 10 10 8 13 12 13 13 14 14 14 14 13 13
16 16 17 19 21 21 20 20 19 18 18 16 15 15 15 16 17 17 15 14 15 14 14 15 16 16 14 12 10 11 13 14 13 12 12 11 12 13 13 14 13 13 13
17 18 17 19 20 21 19 18 17 16 15 14 15 15 15 16 15 16 15 15 14 14 14 16 15 14 14 12 9 12 11 12 9 11 13 12 13 14 15 14 13 13 14
19 20 20 20 21 20 18 17 15 13 14 14 14 14 14 15 16 16 16 14 13 12 13 14 16 15 14 11 13 14 11 11 12 11 15 16 16 16 17 17 17 17 18
19 21 22 22 20 18 17 14 13 12 12 13 12 11 15 13 14 8 16 15 14 13 13 14 12 13 12 8 11 12 14 12 15 19 19 18 17 18 19 19 19 19 19
23 24 23 22 21 17 14 12 11 11 10 10 10 15 14 14 14 18 16 13 10 14 13 12 13 10 11 12 12 13 14 15 18 15 16 19 21 21 22 23 23 21 24
21 23 22 22 17 14 11 11 10 10 8 9 11 11 10 9 9 15 14 13 17 11 10 7 11 9 10 12 15 14 18 18 13 19 20 20 23 24 27 25 18 22 25
20 19 18 15 13 12 10 9 8 10 10 11 8 10 10 7 15 15 10 13 9 7 9 11 11 13 12 13 14 16 16 20 19 19 20 23 24 27 28 26 31 26 28
14 15 13 11 9 8 7 6 6 6 9 9 10 8 9 9 10 8 8 8 9 10 11 9 9 11 11 11 13 14 17 21 23 20 20 22 22 21 24 33 33 34 37
12 10 9 9 8 6 4 4 6 3 4 9 7 9 8 7 6 5 5 7 7 8 7 7 8 11 13 14 17 19 21 22 23 24 26 27 26 26 20 20 35 37 39
7 7 7 9 7 6 3 4 2 3 5 9 8 8 7 6 4 4 4 4 5 8 8 9 10 12 14 17 20 22 24 27 26 27 28 30 36 31 39 34 38 39 41
6 6 6 5 5 4 3 3 3 7 9 10 10 10 9 7 3 4 5 4 5 7 9 10 12 14 17 18 19 21 24 25 30 34 36 40 41 42 41 43 43 42 42
6 7 6 5 3 3 3 4 4 6 8 10 11 11 8 5 5 3 6 5 4 7 10 12 13 15 16 18 19 21 25 28 30 33 35 39 40 42 43 42 43 42 43
5 5 6 6 5 4 3 5 6 8 7 9 12 12 10 7 6 4 3 7 8 7 10 13 15 16 19 21 24 27 30 30 30 31 34 38 37 39 44 44 43 44 47
5 6 6 6 6 6 6 7 8 8 9 11 11 9 9 8 8 10 9 10 9 11 11 12 14 17 20 25 28 30 35 40 43 42 40 38 37 37 37 41 42 46 49
5 5 6 7 8 8 8 9 10 9 9 10 11 10 8 9 8 10 11 11 10 11 12 14 17 20 23 24 28 32 31 33 38 39 32 31 31 32 37 37 42 49 48
5 6 7 8 8 9 9 10 12 12 12 11 10 8 8 6 8 10 11 12 12 12 12 13 16 20 24 26 28 31 32 31 34 35 35 27 28 27 35 42 47 49 38
9 10 10 11 10 10 11 12 14 14 14 13 12 10 9 9 7 8 10 8 7 8 11 14 17 20 24 29 31 32 34 35 36 30 27 35 37 32 40 46 46 47 22
14 14 14 14 13 12 12 13 13 15 15 14 13 12 12 11 11 10 10 11 10 9 11 16 18 22 25 29 31 30 31 35 38 32 30 34 38 37 40 46 45 42 26
Wind_Direction
157 167 146 140 119 119 114 115 116 111 109 104 101 101 106 100 98 88 88 89 81 79 72 67 67 66 56 46 54 131 128 96 93 97 89 102 43 46 88 35 144 182 248
129 143 161 132 115 110 114 120 117 110 105 98 95 97 101 101 96 87 88 88 85 82 74 72 70 67 65 66 66 86 116 104 100 100 84 104 93 82 57 57 73 84 326
96 105 156 122 111 111 120 109 108 105 105 101 94 96 99 96 89 89 86 86 84 80 77 73 70 65 62 65 74 84 94 95 98 93 100 68 64 70 51 48 63 59 66
107 105 110 117 121 120 114 115 116 113 105 101 100 102 99 93 87 80 75 73 74 75 78 77 72 67 62 64 76 75 72 66 52 48 61 94 43 53 35 35 36 44 39
106 108 111 118 115 117 118 112 110 109 103 101 102 100 91 86 80 74 69 65 65 68 72 75 74 71 66 66 69 72 66 59 39 44 42 60 53 47 39 32 26 23 24
110 113 116 112 114 120 113 113 113 105 103 103 97 89 83 75 70 65 62 60 59 58 59 63 62 67 70 68 67 63 69 75 60 43 38 39 41 39 31 25 21 14 3
115 115 112 115 115 111 114 117 109 102 99 92 83 75 71 66 60 55 51 49 48 49 57 63 59 63 62 69 69 68 72 68 62 62 38 26 25 20 17 14 8 356 348
118 113 112 115 117 119 119 113 108 104 95 81 74 70 66 59 52 46 44 39 39 42 51 55 60 64 70 63 59 53 55 48 35 60 51 34 24 19 10 2 355 348 337
129 125 122 118 119 120 120 114 111 101 87 81 75 68 60 53 46 43 41 40 41 50 52 55 56 59 65 71 65 62 59 55 38 39 45 34 14 7 0 357 351 343 332
133 128 125 129 127 124 121 115 105 92 88 80 69 61 55 54 48 44 43 46 51 56 58 59 60 56 65 69 70 72 53 41 27 17 25 16 3 360 358 356 357 358 353
133 131 130 129 126 126 124 116 112 100 91 79 65 57 54 52 48 47 46 46 61 58 57 60 62 63 63 42 22 19 35 29 36 7 18 11 5 356 349 348 347 344 341
132 132 132 130 129 127 124 113 107 100 83 78 71 68 61 57 58 87 81 44 45 46 52 54 48 57 46 24 5 10 10 358 24 9 7 359 350 349 343 338 335 336 329
130 135 134 128 125 122 119 113 103 90 82 80 75 60 40 50 46 48 51 33 113 45 40 6 52 30 21 12 5 4 354 1 7 357 352 344 341 338 334 328 328 333 328
125 132 130 125 121 116 112 107 104 97 91 82 67 64 67 63 84 47 45 23 26 31 44 39 30 18 12 353 353 346 353 347 359 342 343 332 332 327 325 320 322 323 323
119 125 127 125 120 126 130 119 118 112 96 74 58 51 49 18 50 59 49 47 25 44 26 28 6 3 356 354 343 345 336 331 348 340 331 326 326 323 320 322 323 315 328
116 121 124 131 126 131 132 115 89 67 78 72 45 34 35 38 36 48 41 42 27 33 28 21 1 359 345 346 337 335 331 326 334 334 330 323 320 315 323 317 314 328 325
127 127 112 131 123 132 149 102 81 35 43 50 33 23 23 36 54 65 47 43 33 32 23 21 10 4 357 345 343 340 334 335 337 334 328 318 308 296 299 323 322 322 320
135 132 128 131 145 147 178 167 162 313 7 19 13 12 16 27 40 43 48 34 23 20 10 1 357 351 345 342 338 340 332 337 335 332 325 318 320 341 319 324 325 325 317
148 147 147 148 153 174 215 269 317 354 357 351 349 355 2 5 8 24 15 8 33 14 358 348 349 349 346 342 336 336 337 339 334 332 333 327 326 329 329 328 329 321 318
164 161 164 165 192 215 247 281 319 335 341 334 341 346 348 355 1 355 170 336 33 21 357 348 350 350 345 346 343 341 337 336 330 330 328 324 329 329 327 327 324 320 320
186 186 182 193 224 237 263 274 298 310 332 329 338 342 342 351 346 333 3 3 2 12 2 352 349 354 350 348 345 342 341 337 325 331 328 330 332 331 325 323 327 325 325
224 205 195 215 235 247 246 261 283 299 315 324 326 335 342 344 350 345 3 8 2 11 12 345 354 356 352 345 341 343 339 336 332 335 337 328 331 334 324 327 328 326 327
221 237 235 213 216 243 258 269 276 288 299 309 311 324 337 344 344 344 349 7 11 7 2 347 347 348 348 345 344 337 335 331 328 326 326 323 329 334 326 329 331 331 331
223 220 233 245 265 259 252 265 276 285 292 300 300 307 319 332 333 332 342 356 1 3 356 347 340 342 340 339 340 339 339 338 331 325 330 340 347 344 329 339 338 337 337
235 230 234 241 244 261 271 275 280 286 291 296 296 301 306 311 314 316 321 330 340 347 340 336 336 340 339 339 341 344 346 346 344 345 349 352 356 356 343 344 344 345 345
247 244 237 240 244 245 257 270 280 286 293 294 290 294 299 303 302 301 305 312 319 324 333 330 334 336 341 340 343 347 347 350 350 344 356 352 346 359 348 348 347 352 354